sat.trackr.live / text

‹ back to catalog

STARLINK-36710

NORAD 67971 · 2026-038L

PAYLOAD ACTIVE UNKNOWN

§ Identity

Operator
Country
US
Launch date
2026-02-25
Launch site
AFWTR
Launch vehicle
Mass (kg)
RCS (m²)

Purposes: comms

External: N2YO · Heavens-Above · Gunter

§ Orbital elements

Epoch: 2026-09-19T21:58:45.434496Z

Period
93.90 min
Inclination
97.2845°
Eccentricity
0.0002371
Mean motion
15.33473957 rev/d
Perigee alt
463.8 km
Apogee alt
467.1 km
Semi-major
6,843.6 km
B*
4.4971e-4
RAAN
271.2607°
Arg perigee
87.0483°
Mean anomaly
273.1032°
Rev number
3,300

§ Raw data

STARLINK-367101 67971U 26038L   26262.91580364  .00014485  00000+0  44971-3 0  99922 67971  97.2845 271.2607 0002371  87.0483 273.1032 15.33473957 33006

JSON: /api/v1/satellites/67971 · /tle

For live sub-satellite position, see the globe view (requires WebGL).

§ Visibility from observer

Set your observer location to see the next 7 days of passes ≥ 10°. The values pass through the URL so the page stays shareable.

No JS? Fill the form by hand. The geolocation button needs JavaScript.